Year,Month,Day,Hour,Minute,Value (Times are PST for temperature in C)
2017,09,28,00,00,13.40
2017,09,28,00,01,13.50
2017,09,28,00,02,13.50
2017,09,28,00,03,13.60
2017,09,28,00,04,13.60
2017,09,28,00,05,13.60
2017,09,28,00,06,13.60
2017,09,28,00,07,13.60
2017,09,28,00,08,13.60
2017,09,28,00,09,13.60
2017,09,28,00,10,13.60
2017,09,28,00,11,13.60
2017,09,28,00,12,13.60
2017,09,28,00,13,13.60
2017,09,28,00,14,13.60
2017,09,28,00,15,13.60
2017,09,28,00,16,13.60
2017,09,28,00,17,13.60
2017,09,28,00,18,13.50
2017,09,28,00,19,13.50
2017,09,28,00,20,13.50
2017,09,28,00,21,13.40
2017,09,28,00,22,13.30
2017,09,28,00,23,13.30
2017,09,28,00,24,13.20
2017,09,28,00,25,13.20
2017,09,28,00,26,13.10
2017,09,28,00,27,13.10
2017,09,28,00,28,13.20
2017,09,28,00,29,13.30
2017,09,28,00,30,13.30
2017,09,28,00,31,13.40
2017,09,28,00,32,13.50
2017,09,28,00,33,13.50
2017,09,28,00,34,13.50
2017,09,28,00,35,13.50
2017,09,28,00,36,13.50
2017,09,28,00,37,13.60
2017,09,28,00,38,13.60
2017,09,28,00,39,13.60
2017,09,28,00,40,13.60
2017,09,28,00,41,13.60
2017,09,28,00,42,13.60
2017,09,28,00,43,13.70
2017,09,28,00,44,13.70
2017,09,28,00,45,13.70
2017,09,28,00,46,13.70
2017,09,28,00,47,13.70
2017,09,28,00,48,13.70
2017,09,28,00,49,13.70
2017,09,28,00,50,13.70
2017,09,28,00,51,13.70
2017,09,28,00,52,13.70
2017,09,28,00,53,13.70
2017,09,28,00,54,13.70
2017,09,28,00,55,13.60
2017,09,28,00,56,13.60
2017,09,28,00,57,13.60
2017,09,28,00,58,13.60
2017,09,28,00,59,13.60
2017,09,28,01,00,13.60
2017,09,28,01,01,13.60
2017,09,28,01,02,13.60
2017,09,28,01,03,13.60
2017,09,28,01,04,13.50
2017,09,28,01,05,13.50
2017,09,28,01,06,13.50
2017,09,28,01,07,13.50
2017,09,28,01,08,13.50
2017,09,28,01,09,13.50
2017,09,28,01,10,13.50
2017,09,28,01,11,13.50
2017,09,28,01,12,13.50
2017,09,28,01,13,13.40
2017,09,28,01,14,13.40
2017,09,28,01,15,13.40
2017,09,28,01,16,13.40
2017,09,28,01,17,13.40
2017,09,28,01,18,13.40
2017,09,28,01,19,13.50
2017,09,28,01,20,13.50
2017,09,28,01,21,13.50
2017,09,28,01,22,13.50
2017,09,28,01,23,13.40
2017,09,28,01,24,13.50
2017,09,28,01,25,13.50
2017,09,28,01,26,13.50
2017,09,28,01,27,13.60
2017,09,28,01,28,13.60
2017,09,28,01,29,13.60
2017,09,28,01,30,13.60
2017,09,28,01,31,13.60
2017,09,28,01,32,13.60
2017,09,28,01,33,13.60
2017,09,28,01,34,13.60
2017,09,28,01,35,13.60
2017,09,28,01,36,13.60
2017,09,28,01,37,13.60
2017,09,28,01,38,13.60
2017,09,28,01,39,13.60
2017,09,28,01,40,13.50
2017,09,28,01,41,13.50
2017,09,28,01,42,13.50
2017,09,28,01,43,13.60
2017,09,28,01,44,13.60
2017,09,28,01,45,13.60
2017,09,28,01,46,13.70
2017,09,28,01,47,13.70
2017,09,28,01,48,13.70
2017,09,28,01,49,13.80
2017,09,28,01,50,13.80
2017,09,28,01,51,13.80
2017,09,28,01,52,13.90
2017,09,28,01,53,13.90
2017,09,28,01,54,13.90
2017,09,28,01,55,13.90
2017,09,28,01,56,13.90
2017,09,28,01,57,13.90
2017,09,28,01,58,13.90
2017,09,28,01,59,13.90
2017,09,28,02,00,13.90
2017,09,28,02,01,13.90
2017,09,28,02,02,13.90
2017,09,28,02,03,13.90
2017,09,28,02,04,13.90
2017,09,28,02,05,13.90
2017,09,28,02,06,13.90
2017,09,28,02,07,14.00
2017,09,28,02,08,14.00
2017,09,28,02,09,14.00
2017,09,28,02,10,14.10
2017,09,28,02,11,14.20
2017,09,28,02,12,14.20
2017,09,28,02,13,14.20
2017,09,28,02,14,14.30
2017,09,28,02,15,14.30
2017,09,28,02,16,14.30
2017,09,28,02,17,14.40
2017,09,28,02,18,14.40
2017,09,28,02,19,14.40
2017,09,28,02,20,14.40
2017,09,28,02,21,14.40
2017,09,28,02,22,14.50
2017,09,28,02,23,14.50
2017,09,28,02,24,14.50
2017,09,28,02,25,14.50
2017,09,28,02,26,14.50
2017,09,28,02,27,14.50
2017,09,28,02,28,14.50
2017,09,28,02,29,14.50
2017,09,28,02,30,14.60
2017,09,28,02,31,14.60
2017,09,28,02,32,14.60
2017,09,28,02,33,14.60
2017,09,28,02,34,14.60
2017,09,28,02,35,14.60
2017,09,28,02,36,14.60
2017,09,28,02,37,14.50
2017,09,28,02,38,14.50
2017,09,28,02,39,14.50
2017,09,28,02,40,14.50
2017,09,28,02,41,14.50
2017,09,28,02,42,14.50
2017,09,28,02,43,14.50
2017,09,28,02,44,14.40
2017,09,28,02,45,14.40
2017,09,28,02,46,14.40
2017,09,28,02,47,14.50
2017,09,28,02,48,14.50
2017,09,28,02,49,14.50
2017,09,28,02,50,14.50
2017,09,28,02,51,14.50
2017,09,28,02,52,14.40
2017,09,28,02,53,14.40
2017,09,28,02,54,14.40
2017,09,28,02,55,14.40
2017,09,28,02,56,14.40
2017,09,28,02,57,14.40
2017,09,28,02,58,14.40
2017,09,28,02,59,14.40
2017,09,28,03,00,14.40
2017,09,28,03,01,14.40
2017,09,28,03,02,14.40
2017,09,28,03,03,14.40
2017,09,28,03,04,14.50
2017,09,28,03,05,14.50
2017,09,28,03,06,14.60
2017,09,28,03,07,14.60
2017,09,28,03,08,14.70
2017,09,28,03,09,14.70
2017,09,28,03,10,14.70
2017,09,28,03,11,14.70
2017,09,28,03,12,14.80
2017,09,28,03,13,14.80
2017,09,28,03,14,14.80
2017,09,28,03,15,14.80
2017,09,28,03,16,14.80
2017,09,28,03,17,14.80
2017,09,28,03,18,14.80
2017,09,28,03,19,14.80
2017,09,28,03,20,14.80
2017,09,28,03,21,14.80
2017,09,28,03,22,14.70
2017,09,28,03,23,14.70
2017,09,28,03,24,14.70
2017,09,28,03,25,14.70
2017,09,28,03,26,14.70
2017,09,28,03,27,14.60
2017,09,28,03,28,14.60
2017,09,28,03,29,14.60
2017,09,28,03,30,14.60
2017,09,28,03,31,14.60
2017,09,28,03,32,14.50
2017,09,28,03,33,14.50
2017,09,28,03,34,14.50
2017,09,28,03,35,14.40
2017,09,28,03,36,14.40
2017,09,28,03,37,14.30
2017,09,28,03,38,14.30
2017,09,28,03,39,14.20
2017,09,28,03,40,14.20
2017,09,28,03,41,14.20
2017,09,28,03,42,14.20
2017,09,28,03,43,14.10
2017,09,28,03,44,14.10
2017,09,28,03,45,14.10
2017,09,28,03,46,14.00
2017,09,28,03,47,14.00
2017,09,28,03,48,14.00
2017,09,28,03,49,14.00
2017,09,28,03,50,14.00
2017,09,28,03,51,14.00
2017,09,28,03,52,14.00
2017,09,28,03,53,13.90
2017,09,28,03,54,13.90
2017,09,28,03,55,13.90
2017,09,28,03,56,13.90
2017,09,28,03,57,13.90
2017,09,28,03,58,13.90
2017,09,28,03,59,13.90
2017,09,28,04,00,13.80
2017,09,28,04,01,13.80
2017,09,28,04,02,13.80
2017,09,28,04,03,13.80
2017,09,28,04,04,13.80
2017,09,28,04,05,13.80
2017,09,28,04,06,13.90
2017,09,28,04,07,13.90
2017,09,28,04,08,14.00
2017,09,28,04,09,14.00
2017,09,28,04,10,14.10
2017,09,28,04,11,14.20
2017,09,28,04,12,14.20
2017,09,28,04,13,14.20
2017,09,28,04,14,14.30
2017,09,28,04,15,14.30
2017,09,28,04,16,14.40
2017,09,28,04,17,14.50
2017,09,28,04,18,14.50
2017,09,28,04,19,14.60
2017,09,28,04,20,14.60
2017,09,28,04,21,14.60
2017,09,28,04,22,14.70
2017,09,28,04,23,14.70
2017,09,28,04,24,14.70
2017,09,28,04,25,14.70
2017,09,28,04,26,14.70
2017,09,28,04,27,14.60
2017,09,28,04,28,14.60
2017,09,28,04,29,14.60
2017,09,28,04,30,14.60
2017,09,28,04,31,14.60
2017,09,28,04,32,14.60
2017,09,28,04,33,14.60
2017,09,28,04,34,14.60
2017,09,28,04,35,14.60
2017,09,28,04,36,14.60
2017,09,28,04,37,14.50
2017,09,28,04,38,14.50
2017,09,28,04,39,14.50
2017,09,28,04,40,14.60
2017,09,28,04,41,14.60
2017,09,28,04,42,14.60
2017,09,28,04,43,14.60
2017,09,28,04,44,14.60
2017,09,28,04,45,14.60
2017,09,28,04,46,14.60
2017,09,28,04,47,14.60
2017,09,28,04,48,14.60
2017,09,28,04,49,14.50
2017,09,28,04,50,14.50
2017,09,28,04,51,14.50
2017,09,28,04,52,14.50
2017,09,28,04,53,14.40
2017,09,28,04,54,14.40
2017,09,28,04,55,14.40
2017,09,28,04,56,14.30
2017,09,28,04,57,14.20
2017,09,28,04,58,14.20
2017,09,28,04,59,14.20
2017,09,28,05,00,14.10
2017,09,28,05,01,14.00
2017,09,28,05,02,13.90
2017,09,28,05,03,13.80
2017,09,28,05,04,13.70
2017,09,28,05,05,13.70
2017,09,28,05,06,13.60
2017,09,28,05,07,13.60
2017,09,28,05,08,13.50
2017,09,28,05,09,13.40
2017,09,28,05,10,13.40
2017,09,28,05,11,13.30
2017,09,28,05,12,13.30
2017,09,28,05,13,13.30
2017,09,28,05,14,13.30
2017,09,28,05,15,13.20
2017,09,28,05,16,13.20
2017,09,28,05,17,13.10
2017,09,28,05,18,13.10
2017,09,28,05,19,13.00
2017,09,28,05,20,13.00
2017,09,28,05,21,13.00
2017,09,28,05,22,13.00
2017,09,28,05,23,12.90
2017,09,28,05,24,12.90
2017,09,28,05,25,12.90
2017,09,28,05,26,12.80
2017,09,28,05,27,12.80
2017,09,28,05,28,12.80
2017,09,28,05,29,12.80
2017,09,28,05,30,12.80
2017,09,28,05,31,12.80
2017,09,28,05,32,12.80
2017,09,28,05,33,12.80
2017,09,28,05,34,12.80
2017,09,28,05,35,12.80
2017,09,28,05,36,12.90
2017,09,28,05,37,12.90
2017,09,28,05,38,12.90
2017,09,28,05,39,12.90
2017,09,28,05,40,12.90
2017,09,28,05,41,12.90
2017,09,28,05,42,12.80
2017,09,28,05,43,12.80
2017,09,28,05,44,12.80
2017,09,28,05,45,12.80
2017,09,28,05,46,12.80
2017,09,28,05,47,12.80
2017,09,28,05,48,12.80
2017,09,28,05,49,12.90
2017,09,28,05,50,12.90
2017,09,28,05,51,12.90
2017,09,28,05,52,12.90
2017,09,28,05,53,13.00
2017,09,28,05,54,13.00
2017,09,28,05,55,13.00
2017,09,28,05,56,13.10
2017,09,28,05,57,13.20
2017,09,28,05,58,13.30
2017,09,28,05,59,13.40
2017,09,28,06,00,13.60
2017,09,28,06,01,13.70
2017,09,28,06,02,13.80
2017,09,28,06,03,13.90
2017,09,28,06,04,14.00
2017,09,28,06,05,14.10
2017,09,28,06,06,14.20
2017,09,28,06,07,14.30
2017,09,28,06,08,14.50
2017,09,28,06,09,14.50
2017,09,28,06,10,14.60
2017,09,28,06,11,14.60
2017,09,28,06,12,14.70
2017,09,28,06,13,14.80
2017,09,28,06,14,14.80
2017,09,28,06,15,14.80
2017,09,28,06,16,14.80
2017,09,28,06,17,14.80
2017,09,28,06,18,14.90
2017,09,28,06,19,14.90
2017,09,28,06,20,14.90
2017,09,28,06,21,14.90
2017,09,28,06,22,14.90
2017,09,28,06,23,14.90
2017,09,28,06,24,14.90
2017,09,28,06,25,14.80
2017,09,28,06,26,14.80
2017,09,28,06,27,14.80
2017,09,28,06,28,14.70
2017,09,28,06,29,14.70
2017,09,28,06,30,14.60
2017,09,28,06,31,14.60
2017,09,28,06,32,14.50
2017,09,28,06,33,14.40
2017,09,28,06,34,14.30
2017,09,28,06,35,14.20
2017,09,28,06,36,14.10
2017,09,28,06,37,14.00
2017,09,28,06,38,14.00
2017,09,28,06,39,13.90
2017,09,28,06,40,13.90
2017,09,28,06,41,13.80
2017,09,28,06,42,13.70
2017,09,28,06,43,13.70
2017,09,28,06,44,13.70
2017,09,28,06,45,13.70
2017,09,28,06,46,13.60
2017,09,28,06,47,13.60
2017,09,28,06,48,13.50
2017,09,28,06,49,13.50
2017,09,28,06,50,13.40
2017,09,28,06,51,13.30
2017,09,28,06,52,13.30
2017,09,28,06,53,13.30
2017,09,28,06,54,13.20
2017,09,28,06,55,13.20
2017,09,28,06,56,13.20
2017,09,28,06,57,13.10
2017,09,28,06,58,13.10
2017,09,28,06,59,13.10
2017,09,28,07,00,13.10
2017,09,28,07,01,13.10
2017,09,28,07,02,13.00
2017,09,28,07,03,13.10
2017,09,28,07,04,13.10
2017,09,28,07,05,13.10
2017,09,28,07,06,13.10
2017,09,28,07,07,13.20
2017,09,28,07,08,13.20
2017,09,28,07,09,13.20
2017,09,28,07,10,13.20
2017,09,28,07,11,13.20
2017,09,28,07,12,13.20
2017,09,28,07,13,13.30
2017,09,28,07,14,13.30
2017,09,28,07,15,13.30
2017,09,28,07,16,13.30
2017,09,28,07,17,13.30
2017,09,28,07,18,13.30
2017,09,28,07,19,13.30
2017,09,28,07,20,13.30
2017,09,28,07,21,13.30
2017,09,28,07,22,13.30
2017,09,28,07,23,13.30
2017,09,28,07,24,13.40
2017,09,28,07,25,13.40
2017,09,28,07,26,13.50
2017,09,28,07,27,13.50
2017,09,28,07,28,13.60
2017,09,28,07,29,13.60
2017,09,28,07,30,13.60
2017,09,28,07,31,13.60
2017,09,28,07,32,13.70
2017,09,28,07,33,13.70
2017,09,28,07,34,13.70
2017,09,28,07,35,13.70
2017,09,28,07,36,13.70
2017,09,28,07,37,13.70
2017,09,28,07,38,13.70
2017,09,28,07,39,13.70
2017,09,28,07,40,13.70
2017,09,28,07,41,13.70
2017,09,28,07,42,13.80
2017,09,28,07,43,13.80
2017,09,28,07,44,13.80
2017,09,28,07,45,13.80
2017,09,28,07,46,13.80
2017,09,28,07,47,13.90
2017,09,28,07,48,13.90
2017,09,28,07,49,13.90
2017,09,28,07,50,14.00
2017,09,28,07,51,14.00
2017,09,28,07,52,14.10
2017,09,28,07,53,14.20
2017,09,28,07,54,14.20
2017,09,28,07,55,14.30
2017,09,28,07,56,14.30
2017,09,28,07,57,14.40
2017,09,28,07,58,14.50
2017,09,28,07,59,14.50
2017,09,28,08,00,14.60
2017,09,28,08,01,14.60
2017,09,28,08,02,14.70
2017,09,28,08,03,14.70
2017,09,28,08,04,14.80
2017,09,28,08,05,14.80
2017,09,28,08,06,14.80
2017,09,28,08,07,14.90
2017,09,28,08,08,14.90
2017,09,28,08,09,15.00
2017,09,28,08,10,15.00
2017,09,28,08,11,15.00
2017,09,28,08,12,15.10
2017,09,28,08,13,15.10
2017,09,28,08,14,15.10
2017,09,28,08,15,15.20
2017,09,28,08,16,15.20
2017,09,28,08,17,15.20
2017,09,28,08,18,15.20
2017,09,28,08,19,15.20
2017,09,28,08,20,15.20
2017,09,28,08,21,15.20
2017,09,28,08,22,15.20
2017,09,28,08,23,15.30
2017,09,28,08,24,15.30
2017,09,28,08,25,15.30
2017,09,28,08,26,15.30
2017,09,28,08,27,15.40
2017,09,28,08,28,15.40
2017,09,28,08,29,15.50
2017,09,28,08,30,15.50
2017,09,28,08,31,15.60
2017,09,28,08,32,15.70
2017,09,28,08,33,15.80
2017,09,28,08,34,15.80
2017,09,28,08,35,15.90
2017,09,28,08,36,16.00
2017,09,28,08,37,16.10
2017,09,28,08,38,16.20
2017,09,28,08,39,16.20
2017,09,28,08,40,16.30
2017,09,28,08,41,16.40
2017,09,28,08,42,16.40
2017,09,28,08,43,16.50
2017,09,28,08,44,16.60
2017,09,28,08,45,16.60
2017,09,28,08,46,16.70
2017,09,28,08,47,16.70
2017,09,28,08,48,16.70
2017,09,28,08,49,16.70
2017,09,28,08,50,16.70
2017,09,28,08,51,16.70
2017,09,28,08,52,16.70
2017,09,28,08,53,16.70
2017,09,28,08,54,16.70
2017,09,28,08,55,16.70
2017,09,28,08,56,16.80
2017,09,28,08,57,16.80
2017,09,28,08,58,16.80
2017,09,28,08,59,16.90
2017,09,28,09,00,16.90
2017,09,28,09,01,16.90
2017,09,28,09,02,16.90
2017,09,28,09,03,16.90
2017,09,28,09,04,16.90
2017,09,28,09,05,16.90
2017,09,28,09,06,16.90
2017,09,28,09,07,16.90
2017,09,28,09,08,16.90
2017,09,28,09,09,16.90
2017,09,28,09,10,16.90
2017,09,28,09,11,16.90
2017,09,28,09,12,16.90
2017,09,28,09,13,16.90
2017,09,28,09,14,16.90
2017,09,28,09,15,16.90
2017,09,28,09,16,16.90
2017,09,28,09,17,16.90
2017,09,28,09,18,16.90
2017,09,28,09,19,16.90
2017,09,28,09,20,16.90
2017,09,28,09,21,16.90
2017,09,28,09,22,16.90
2017,09,28,09,23,16.90
2017,09,28,09,24,17.00
2017,09,28,09,25,17.00
2017,09,28,09,26,17.10
2017,09,28,09,27,17.10
2017,09,28,09,28,17.10
2017,09,28,09,29,17.00
2017,09,28,09,30,17.00
2017,09,28,09,31,17.00
2017,09,28,09,32,17.00
2017,09,28,09,33,17.00
2017,09,28,09,34,17.00
2017,09,28,09,35,17.00
2017,09,28,09,36,17.10
2017,09,28,09,37,17.10
2017,09,28,09,38,17.10
2017,09,28,09,39,17.10
2017,09,28,09,40,17.10
2017,09,28,09,41,17.10
2017,09,28,09,42,17.10
2017,09,28,09,43,17.10
2017,09,28,09,44,17.10
2017,09,28,09,45,17.20
2017,09,28,09,46,17.30
2017,09,28,09,47,17.30
2017,09,28,09,48,17.30
2017,09,28,09,49,17.30
2017,09,28,09,50,17.30
2017,09,28,09,51,17.30
2017,09,28,09,52,17.30
2017,09,28,09,53,17.30
2017,09,28,09,54,17.30
2017,09,28,09,55,17.40
2017,09,28,09,56,17.40
2017,09,28,09,57,17.50
2017,09,28,09,58,17.60
2017,09,28,09,59,17.60
2017,09,28,10,00,17.70
2017,09,28,10,01,17.70
2017,09,28,10,02,17.80
2017,09,28,10,03,17.80
2017,09,28,10,04,17.80
2017,09,28,10,05,17.80
2017,09,28,10,06,17.90
2017,09,28,10,07,17.90
2017,09,28,10,08,17.90
2017,09,28,10,09,17.90
2017,09,28,10,10,17.80
2017,09,28,10,11,17.80
2017,09,28,10,12,17.80
2017,09,28,10,13,17.90
2017,09,28,10,14,17.90
2017,09,28,10,15,17.90
2017,09,28,10,16,17.90
2017,09,28,10,17,17.90
2017,09,28,10,18,18.00
2017,09,28,10,19,18.10
2017,09,28,10,20,18.10
2017,09,28,10,21,18.20
2017,09,28,10,22,18.20
2017,09,28,10,23,18.20
2017,09,28,10,24,18.20
2017,09,28,10,25,18.20
2017,09,28,10,26,18.20
2017,09,28,10,27,18.20
2017,09,28,10,28,18.20
2017,09,28,10,29,18.20
2017,09,28,10,30,18.20
2017,09,28,10,31,18.30
2017,09,28,10,32,18.30
2017,09,28,10,33,18.30
2017,09,28,10,34,18.40
2017,09,28,10,35,18.40
2017,09,28,10,36,18.50
2017,09,28,10,37,18.60
2017,09,28,10,38,18.50
2017,09,28,10,39,18.50
2017,09,28,10,40,18.60
2017,09,28,10,41,18.60
2017,09,28,10,42,18.60
2017,09,28,10,43,18.60
2017,09,28,10,44,18.70
2017,09,28,10,45,18.70
2017,09,28,10,46,18.70
2017,09,28,10,47,18.70
2017,09,28,10,48,18.80
2017,09,28,10,49,18.80
2017,09,28,10,50,18.80
2017,09,28,10,51,18.80
2017,09,28,10,52,18.80
2017,09,28,10,53,18.90
2017,09,28,10,54,18.90
2017,09,28,10,55,18.90
2017,09,28,10,56,18.90
2017,09,28,10,57,18.90
2017,09,28,10,58,19.00
2017,09,28,10,59,19.10
2017,09,28,11,00,19.10
2017,09,28,11,01,19.10
2017,09,28,11,02,19.10
2017,09,28,11,03,19.10
2017,09,28,11,04,19.00
2017,09,28,11,05,18.90
2017,09,28,11,06,18.90
2017,09,28,11,07,18.90
2017,09,28,11,08,18.90
2017,09,28,11,09,18.80
2017,09,28,11,10,18.80
2017,09,28,11,11,18.80
2017,09,28,11,12,18.80
2017,09,28,11,13,18.90
2017,09,28,11,14,18.90
2017,09,28,11,15,19.00
2017,09,28,11,16,19.10
2017,09,28,11,17,19.10
2017,09,28,11,18,19.20
2017,09,28,11,19,19.20
2017,09,28,11,20,19.20
2017,09,28,11,21,19.20
2017,09,28,11,22,19.20
2017,09,28,11,23,19.40
2017,09,28,11,24,19.40
2017,09,28,11,25,19.40
2017,09,28,11,26,19.40
2017,09,28,11,27,19.50
2017,09,28,11,28,19.50
2017,09,28,11,29,19.60
2017,09,28,11,30,19.60
2017,09,28,11,31,19.60
2017,09,28,11,32,19.60
2017,09,28,11,33,19.60
2017,09,28,11,34,19.60
2017,09,28,11,35,19.60
2017,09,28,11,36,19.70
2017,09,28,11,37,19.60
2017,09,28,11,38,19.60
2017,09,28,11,39,19.50
2017,09,28,11,40,19.50
2017,09,28,11,41,19.50
2017,09,28,11,42,19.50
2017,09,28,11,43,19.60
2017,09,28,11,44,19.60
2017,09,28,11,45,19.60
2017,09,28,11,46,19.70
2017,09,28,11,47,19.70
2017,09,28,11,48,19.80
2017,09,28,11,49,19.90
2017,09,28,11,50,19.90
2017,09,28,11,51,19.90
2017,09,28,11,52,19.90
2017,09,28,11,53,19.90
2017,09,28,11,54,19.90
2017,09,28,11,55,19.90
2017,09,28,11,56,19.80
2017,09,28,11,57,19.80
2017,09,28,11,58,19.90
2017,09,28,11,59,19.90
2017,09,28,12,00,19.90
2017,09,28,12,01,20.10
2017,09,28,12,02,20.10
2017,09,28,12,03,20.10
2017,09,28,12,04,20.10
2017,09,28,12,05,20.20
2017,09,28,12,06,20.20
2017,09,28,12,07,20.30
2017,09,28,12,08,20.30
2017,09,28,12,09,20.30
2017,09,28,12,10,20.30
2017,09,28,12,11,20.40
2017,09,28,12,12,20.40
2017,09,28,12,13,20.40
2017,09,28,12,14,20.30
2017,09,28,12,15,20.20
2017,09,28,12,16,20.20
2017,09,28,12,17,20.20
2017,09,28,12,18,20.20
2017,09,28,12,19,20.20
2017,09,28,12,20,20.20
2017,09,28,12,21,20.20
2017,09,28,12,22,20.20
2017,09,28,12,23,20.20
2017,09,28,12,24,20.20
2017,09,28,12,25,20.20
2017,09,28,12,26,20.20
2017,09,28,12,27,20.20
2017,09,28,12,28,20.20
2017,09,28,12,29,20.20
2017,09,28,12,30,20.20
2017,09,28,12,31,20.30
2017,09,28,12,32,20.30
2017,09,28,12,33,20.30
2017,09,28,12,34,20.30
2017,09,28,12,35,20.30
2017,09,28,12,36,20.40
2017,09,28,12,37,20.40
2017,09,28,12,38,20.50
2017,09,28,12,39,20.50
2017,09,28,12,40,20.60
2017,09,28,12,41,20.70
2017,09,28,12,42,20.70
2017,09,28,12,43,20.80
2017,09,28,12,44,20.90
2017,09,28,12,45,20.90
2017,09,28,12,46,21.00
2017,09,28,12,47,21.00
2017,09,28,12,48,21.00
2017,09,28,12,49,21.00
2017,09,28,12,50,21.00
2017,09,28,12,51,21.00
2017,09,28,12,52,21.00
2017,09,28,12,53,21.00
2017,09,28,12,54,21.00
2017,09,28,12,55,21.00
2017,09,28,12,56,21.10
2017,09,28,12,57,21.10
2017,09,28,12,58,21.20
2017,09,28,12,59,21.20
2017,09,28,13,00,21.30
2017,09,28,13,01,21.30
2017,09,28,13,02,21.30
2017,09,28,13,03,21.30
2017,09,28,13,04,21.30
2017,09,28,13,05,21.20
2017,09,28,13,06,21.20
2017,09,28,13,07,21.10
2017,09,28,13,08,21.10
2017,09,28,13,09,21.10
2017,09,28,13,10,21.10
2017,09,28,13,11,21.10
2017,09,28,13,12,21.10
2017,09,28,13,13,21.10
2017,09,28,13,14,21.20
2017,09,28,13,15,21.20
2017,09,28,13,16,21.30
2017,09,28,13,17,21.30
2017,09,28,13,18,21.30
2017,09,28,13,19,21.30
2017,09,28,13,20,21.30
2017,09,28,13,21,21.30
2017,09,28,13,22,21.30
2017,09,28,13,23,21.30
2017,09,28,13,24,21.30
2017,09,28,13,25,21.30
2017,09,28,13,26,21.30
2017,09,28,13,27,21.30
2017,09,28,13,28,21.30
2017,09,28,13,29,21.30
2017,09,28,13,30,21.30
2017,09,28,13,31,21.30
2017,09,28,13,32,21.30
2017,09,28,13,33,21.30
2017,09,28,13,34,21.40
2017,09,28,13,35,21.50
2017,09,28,13,36,21.60
2017,09,28,13,37,21.60
2017,09,28,13,38,21.70
2017,09,28,13,39,21.80
2017,09,28,13,40,21.90
2017,09,28,13,41,21.90
2017,09,28,13,42,21.90
2017,09,28,13,43,21.90
2017,09,28,13,44,21.90
2017,09,28,13,45,21.90
2017,09,28,13,46,22.00
2017,09,28,13,47,22.00
2017,09,28,13,48,22.10
2017,09,28,13,49,22.10
2017,09,28,13,50,22.10
2017,09,28,13,51,22.10
2017,09,28,13,52,22.20
2017,09,28,13,53,22.20
2017,09,28,13,54,22.30
2017,09,28,13,55,22.30
2017,09,28,13,56,22.30
2017,09,28,13,57,22.30
2017,09,28,13,58,22.30
2017,09,28,13,59,22.30
2017,09,28,14,00,22.40
2017,09,28,14,01,22.50
2017,09,28,14,02,22.60
2017,09,28,14,03,22.60
2017,09,28,14,04,22.70
2017,09,28,14,05,22.70
2017,09,28,14,06,22.80
2017,09,28,14,07,22.80
2017,09,28,14,08,22.90
2017,09,28,14,09,22.90
2017,09,28,14,10,23.00
2017,09,28,14,11,23.10
2017,09,28,14,12,23.10
2017,09,28,14,13,23.10
2017,09,28,14,14,23.10
2017,09,28,14,15,23.10
2017,09,28,14,16,23.20
2017,09,28,14,17,23.20
2017,09,28,14,18,23.20
2017,09,28,14,19,23.30
2017,09,28,14,20,23.30
2017,09,28,14,21,23.30
2017,09,28,14,22,23.30
2017,09,28,14,23,23.40
2017,09,28,14,24,23.40
2017,09,28,14,25,23.50
2017,09,28,14,26,23.60
2017,09,28,14,27,23.70
2017,09,28,14,28,23.70
2017,09,28,14,29,23.70
2017,09,28,14,30,23.70
2017,09,28,14,31,23.80
2017,09,28,14,32,23.90
2017,09,28,14,33,23.90
2017,09,28,14,34,23.90
2017,09,28,14,35,23.90
2017,09,28,14,36,23.80
2017,09,28,14,37,23.80
2017,09,28,14,38,23.80
2017,09,28,14,39,23.80
2017,09,28,14,40,23.80
2017,09,28,14,41,23.90
2017,09,28,14,42,23.80
2017,09,28,14,43,23.80
2017,09,28,14,44,23.80
2017,09,28,14,45,23.70
2017,09,28,14,46,23.70
2017,09,28,14,47,23.70
2017,09,28,14,48,23.70
2017,09,28,14,49,23.70
2017,09,28,14,50,23.70
2017,09,28,14,51,23.70
2017,09,28,14,52,23.70
2017,09,28,14,53,23.70
2017,09,28,14,54,23.70
2017,09,28,14,55,23.70
2017,09,28,14,56,23.80
2017,09,28,14,57,23.80
2017,09,28,14,58,23.90
2017,09,28,14,59,24.00
2017,09,28,15,00,24.10
2017,09,28,15,01,24.10
2017,09,28,15,02,24.20
2017,09,28,15,03,24.30
2017,09,28,15,04,24.40
2017,09,28,15,05,24.50
2017,09,28,15,06,24.50
2017,09,28,15,07,24.50
2017,09,28,15,08,24.50
2017,09,28,15,09,24.50
2017,09,28,15,10,24.50
2017,09,28,15,11,24.50
2017,09,28,15,12,24.40
2017,09,28,15,13,24.50
2017,09,28,15,14,24.50
2017,09,28,15,15,24.50
2017,09,28,15,16,24.50
2017,09,28,15,17,24.50
2017,09,28,15,18,24.40
2017,09,28,15,19,24.40
2017,09,28,15,20,24.40
2017,09,28,15,21,24.30
2017,09,28,15,22,24.30
2017,09,28,15,23,24.30
2017,09,28,15,24,24.40
2017,09,28,15,25,24.40
2017,09,28,15,26,24.40
2017,09,28,15,27,24.40
2017,09,28,15,28,24.40
2017,09,28,15,29,24.30
2017,09,28,15,30,24.30
2017,09,28,15,31,24.30
2017,09,28,15,32,24.30
2017,09,28,15,33,24.30
2017,09,28,15,34,24.20
2017,09,28,15,35,24.10
2017,09,28,15,36,24.10
2017,09,28,15,37,24.10
2017,09,28,15,38,24.10
2017,09,28,15,39,24.10
2017,09,28,15,40,24.10
2017,09,28,15,41,24.20
2017,09,28,15,42,24.20
2017,09,28,15,43,24.30
2017,09,28,15,44,24.30
2017,09,28,15,45,24.30
2017,09,28,15,46,24.40
2017,09,28,15,47,24.40
2017,09,28,15,48,24.40
2017,09,28,15,49,24.40
2017,09,28,15,50,24.50
2017,09,28,15,51,24.50
2017,09,28,15,52,24.60
2017,09,28,15,53,24.50
2017,09,28,15,54,24.50
2017,09,28,15,55,24.50
2017,09,28,15,56,24.50
2017,09,28,15,57,24.50
2017,09,28,15,58,24.60
2017,09,28,15,59,24.70
2017,09,28,16,00,24.70
2017,09,28,16,01,24.80
2017,09,28,16,02,24.70
2017,09,28,16,03,24.60
2017,09,28,16,04,24.60
2017,09,28,16,05,24.60
2017,09,28,16,06,24.60
2017,09,28,16,07,24.60
2017,09,28,16,08,24.60
2017,09,28,16,09,24.60
2017,09,28,16,10,24.70
2017,09,28,16,11,24.70
2017,09,28,16,12,24.70
2017,09,28,16,13,24.70
2017,09,28,16,14,24.70
2017,09,28,16,15,24.70
2017,09,28,16,16,24.70
2017,09,28,16,17,24.70
2017,09,28,16,18,24.70
2017,09,28,16,19,24.70
2017,09,28,16,20,24.70
2017,09,28,16,21,24.70
2017,09,28,16,22,24.70
2017,09,28,16,23,24.70
2017,09,28,16,24,24.70
2017,09,28,16,25,24.70
2017,09,28,16,26,24.70
2017,09,28,16,27,24.60
2017,09,28,16,28,24.60
2017,09,28,16,29,24.50
2017,09,28,16,30,24.50
2017,09,28,16,31,24.60
2017,09,28,16,32,24.60
2017,09,28,16,33,24.60
2017,09,28,16,34,24.70
2017,09,28,16,35,24.70
2017,09,28,16,36,24.80
2017,09,28,16,37,24.80
2017,09,28,16,38,24.90
2017,09,28,16,39,24.90
2017,09,28,16,40,25.00
2017,09,28,16,41,25.10
2017,09,28,16,42,25.10
2017,09,28,16,43,25.10
2017,09,28,16,44,25.20
2017,09,28,16,45,25.20
2017,09,28,16,46,25.20
2017,09,28,16,47,25.20
2017,09,28,16,48,25.10
2017,09,28,16,49,25.00
2017,09,28,16,50,24.90
2017,09,28,16,51,24.90
2017,09,28,16,52,24.80
2017,09,28,16,53,24.70
2017,09,28,16,54,24.60
2017,09,28,16,55,24.60
2017,09,28,16,56,24.60
2017,09,28,16,57,24.50
2017,09,28,16,58,24.50
2017,09,28,16,59,24.50
2017,09,28,17,00,24.60
2017,09,28,17,01,24.60
2017,09,28,17,02,24.60
2017,09,28,17,03,24.60
2017,09,28,17,04,24.60
2017,09,28,17,05,24.70
2017,09,28,17,06,24.70
2017,09,28,17,07,24.70
2017,09,28,17,08,24.70
2017,09,28,17,09,24.70
2017,09,28,17,10,24.70
2017,09,28,17,11,24.70
2017,09,28,17,12,24.60
2017,09,28,17,13,24.50
2017,09,28,17,14,24.40
2017,09,28,17,15,24.30
2017,09,28,17,16,24.20
2017,09,28,17,17,24.20
2017,09,28,17,18,24.10
2017,09,28,17,19,24.10